Lapse_Rate
6.7 7.2 7.6 7.8 8.1 8.8 9.3 8.5 8.2 7.4 7.6 7.6 6.2 5.9 6.5 6.7 7.2 7.0 6.5 6.1 5.8 5.6 5.4 5.3 5.3 5.9 6.3 6.1 6.0 5.7 5.6 5.9 5.9 6.0 6.1 5.1 5.7 5.0 5.1 5.9 5.8 6.0 6.0 6.1
7.2 7.1 7.5 8.1 8.3 9.0 9.4 9.4 8.6 7.7 8.1 7.3 7.1 6.2 7.1 8.2 7.7 7.1 6.7 6.1 6.0 5.8 5.4 5.3 5.7 6.1 6.7 6.2 6.1 5.8 5.5 5.7 5.9 5.7 5.9 5.1 4.8 5.1 5.4 5.9 6.0 6.1 6.0 6.0
7.1 7.1 7.7 8.1 8.4 9.4 9.5 9.6 9.0 8.1 8.4 8.7 8.0 6.8 7.3 7.7 8.7 7.5 7.3 6.6 6.1 6.0 5.6 5.7 6.3 6.3 6.4 6.5 6.3 6.2 5.6 5.5 5.7 5.7 5.9 5.0 5.3 5.2 6.3 6.0 6.1 6.2 6.2 6.2
7.4 7.6 8.3 8.4 8.5 9.5 9.6 9.6 9.5 9.1 8.5 9.3 9.4 9.3 8.6 8.0 7.9 8.3 7.6 6.9 6.6 6.2 6.0 6.0 6.6 6.7 7.0 6.7 6.5 6.4 6.1 5.6 5.6 5.7 5.7 5.1 5.0 5.9 6.2 6.1 6.3 6.2 6.3 6.3
7.1 7.7 8.4 9.4 8.7 9.3 9.5 9.6 9.5 9.6 9.5 9.5 9.4 9.6 9.0 8.7 8.2 7.7 8.0 7.5 7.0 6.2 6.1 6.2 6.7 6.7 6.3 6.5 6.6 6.4 6.2 5.9 5.8 5.7 5.8 5.5 6.0 5.8 6.1 6.2 6.1 6.1 6.3 6.4
7.6 8.4 8.5 8.9 9.6 9.4 9.6 9.6 9.6 8.9 9.3 9.7 9.7 9.6 8.7 8.9 8.6 8.4 7.5 7.7 7.3 6.6 6.3 6.2 6.4 6.8 6.8 6.3 6.8 6.5 6.1 5.9 5.9 5.7 5.8 5.9 5.8 5.4 5.5 6.2 6.1 6.1 6.4 6.5
7.8 8.0 8.7 9.5 9.6 9.6 9.5 9.5 9.5 9.3 9.5 9.7 9.7 9.7 9.5 8.5 8.9 9.3 8.6 8.0 7.7 7.1 6.6 6.3 6.2 6.9 7.2 6.6 6.9 6.6 6.2 5.9 5.8 5.7 5.9 5.9 5.7 6.0 5.8 6.2 6.0 6.2 6.5 6.5
8.1 8.3 8.2 8.8 9.5 9.6 9.6 9.6 9.6 9.1 9.2 9.8 9.5 9.6 9.7 9.0 9.1 8.8 8.2 8.4 7.9 7.9 6.9 6.6 6.2 6.7 6.9 6.7 7.0 6.8 6.5 6.1 5.9 5.8 5.9 5.9 5.8 6.0 6.3 6.1 6.0 6.2 6.3 6.6
8.8 8.0 9.2 8.9 9.6 9.7 9.5 9.6 9.4 9.6 9.6 9.8 9.6 9.6 9.4 9.2 8.7 9.2 9.2 8.9 8.6 8.2 8.3 7.2 6.7 6.6 6.8 7.0 6.7 6.7 6.7 6.2 6.0 6.0 5.9 5.9 5.8 6.0 6.3 6.2 6.1 6.3 6.3 6.7
8.5 9.2 9.4 9.6 9.4 9.7 9.5 9.4 9.6 9.6 9.4 9.3 9.6 9.7 9.4 8.9 9.5 9.1 9.0 9.0 9.3 9.2 8.9 7.9 7.3 7.0 7.1 6.9 6.6 6.4 6.7 6.4 6.2 6.1 6.0 6.1 6.0 6.0 6.2 6.3 6.3 6.3 6.3 6.5
8.5 9.4 9.6 9.7 9.7 9.6 9.6 9.8 9.5 9.6 9.7 9.7 9.3 9.7 8.7 9.3 8.7 9.6 9.6 9.4 8.7 8.3 7.8 7.9 8.1 7.3 7.2 6.8 6.6 6.4 6.3 6.8 6.3 6.2 6.4 6.3 6.2 6.1 6.1 6.4 6.5 6.6 6.5 6.5
9.6 9.6 9.6 9.6 9.7 9.7 9.7 9.6 9.6 9.5 9.0 9.7 9.6 9.6 9.7 8.6 9.1 9.7 9.1 8.9 8.6 7.8 7.4 7.7 8.0 7.5 7.3 7.0 6.5 6.4 6.4 7.0 6.7 6.4 6.5 6.5 6.4 6.3 6.1 6.4 6.6 6.6 6.7 6.6
9.0 9.2 9.5 9.4 9.6 9.7 9.7 9.7 9.5 9.6 9.1 9.3 9.7 9.1 9.2 8.8 9.2 9.4 9.3 8.8 8.2 7.8 7.9 7.7 7.7 7.4 7.1 7.0 6.3 6.1 6.4 6.5 7.2 6.6 6.5 6.5 6.5 6.4 6.4 6.4 6.5 6.7 6.7 6.8
8.7 8.4 9.0 9.1 9.5 9.7 9.7 9.7 9.7 9.7 9.8 9.2 9.5 9.3 9.5 9.2 9.2 8.8 9.2 8.9 7.9 8.0 8.0 7.5 7.3 7.2 7.0 7.0 6.6 6.1 6.0 6.3 6.7 7.1 6.5 6.5 6.5 6.4 6.5 6.5 6.5 6.6 6.7 6.8
8.6 8.9 9.4 8.8 9.1 9.3 9.7 9.7 9.7 9.7 9.6 9.8 9.6 9.5 9.7 8.8 9.1 8.8 8.6 8.1 7.7 7.3 7.4 7.5 7.5 7.4 6.8 6.8 6.5 6.3 6.0 6.4 6.6 6.9 6.8 6.4 6.5 6.5 6.4 6.5 6.6 6.5 6.6 6.7
9.0 9.0 9.1 8.8 9.2 9.8 9.5 9.7 9.7 9.7 9.7 9.6 9.5 9.7 8.8 9.3 9.1 8.3 8.5 7.8 7.5 7.3 7.7 8.3 8.2 8.0 7.4 6.5 6.4 6.3 6.3 6.5 6.6 6.7 7.0 6.8 6.3 6.3 6.5 6.5 6.6 6.6 6.6 6.6
9.2 9.6 9.4 8.8 9.4 9.8 9.7 9.5 9.7 9.7 9.7 9.7 9.6 8.2 8.3 8.5 8.4 7.8 7.5 7.0 7.2 7.8 8.2 8.2 8.1 8.2 7.9 8.0 6.4 6.6 6.2 6.5 6.6 6.9 7.1 7.0 6.7 6.4 6.4 6.5 6.5 6.5 6.6 6.6
9.0 8.9 8.9 9.3 9.5 9.7 9.6 9.6 9.6 9.3 8.5 8.2 8.1 7.8 7.8 8.0 7.4 6.8 7.3 7.2 6.8 7.6 8.1 8.1 8.2 8.4 8.1 8.1 8.1 6.8 6.7 6.9 7.2 7.2 7.2 7.1 7.1 7.0 6.8 6.5 6.4 6.4 6.6 6.6
8.6 8.7 8.9 9.3 9.5 9.6 9.7 9.4 9.2 9.5 8.1 8.2 8.2 7.9 7.8 7.9 6.9 7.1 7.3 7.1 7.0 7.8 8.3 8.1 8.2 8.1 8.5 8.4 8.1 8.2 8.0 7.0 7.5 7.6 7.5 7.3 7.1 7.0 6.8 6.6 6.4 6.4 6.3 6.5
8.6 8.5 8.4 9.0 9.4 9.5 8.0 8.5 8.3 7.9 7.5 7.2 7.9 8.5 8.3 7.9 7.6 6.5 6.6 6.1 7.0 7.7 8.0 8.1 7.9 7.8 8.1 8.5 8.0 8.0 7.9 8.1 7.7 7.9 7.9 7.7 7.5 7.4 7.1 7.0 7.0 6.8 6.3 6.1
8.4 8.6 8.7 8.7 8.9 8.0 7.4 7.2 7.7 7.7 6.3 7.0 7.4 7.9 8.1 7.8 7.6 7.4 7.0 6.7 7.0 7.1 7.2 7.3 7.4 7.4 7.7 8.4 8.3 8.5 8.3 8.3 8.2 7.7 8.1 8.0 8.0 7.8 7.8 7.4 7.0 6.8 6.6 6.4
8.4 8.6 8.8 8.9 9.0 8.7 7.6 7.2 7.2 7.0 6.6 6.7 7.7 8.4 8.3 8.2 8.1 7.9 7.4 7.3 7.0 6.8 7.1 7.2 7.3 7.3 7.5 8.0 8.3 8.5 8.5 8.2 8.2 8.1 8.0 8.2 8.0 8.0 7.8 7.7 7.6 7.2 6.8 6.6
8.3 8.5 8.6 8.6 7.9 7.2 7.6 7.9 8.1 8.2 7.8 7.5 7.6 7.9 7.7 7.8 7.7 7.2 6.9 6.7 6.7 6.6 6.7 7.0 7.4 7.3 7.4 7.6 8.0 8.4 8.5 8.8 8.7 8.4 8.2 8.2 8.3 8.2 8.0 7.7 7.6 7.2 7.0 6.9
8.1 7.7 8.0 8.0 7.3 7.3 6.9 6.6 7.0 7.1 7.1 7.3 7.2 7.5 7.6 7.6 7.4 7.2 7.1 6.9 6.6 6.5 6.7 6.7 7.1 7.3 7.2 7.6 7.8 8.2 8.6 8.7 8.8 8.7 8.3 8.3 8.2 8.2 8.0 7.8 7.4 7.3 7.2 7.0
7.7 7.9 7.9 7.9 7.0 6.7 6.7 6.3 6.4 6.5 6.3 6.3 6.8 7.1 7.3 7.2 7.2 7.4 7.3 7.1 6.9 6.7 6.6 6.6 6.7 7.2 7.2 7.3 7.7 7.8 8.6 8.5 9.0 8.7 8.5 8.5 8.3 8.1 8.1 7.9 7.5 7.2 7.3 7.2
7.0 6.7 6.9 6.9 6.8 6.8 6.3 6.2 5.9 6.1 6.5 6.4 6.1 6.7 7.0 7.0 7.1 7.2 7.1 7.1 7.0 6.8 6.8 6.8 6.7 6.6 6.9 6.9 7.3 8.0 8.2 8.8 8.8 8.3 8.2 8.3 8.4 8.1 7.9 8.0 7.9 7.6 7.1 7.3
Wind_Speed
19 15 18 21 20 23 17 14 9 13 16 10 3 15 16 20 17 19 16 16 17 19 18 18 17 15 15 15 14 10 9 9 7 5 5 4 6 3 7 8 10 5 2 2
20 22 23 23 23 22 19 13 14 10 17 14 21 22 26 29 26 24 23 18 19 20 19 18 17 17 17 16 14 11 9 9 6 6 4 5 3 3 7 7 5 6 3 8
24 25 23 23 23 23 21 19 13 12 15 22 23 22 26 20 21 21 22 21 19 20 21 19 18 18 18 17 17 13 11 12 8 7 4 1 0 4 8 6 4 4 3 7
26 25 26 23 23 23 20 17 12 19 19 7 11 8 22 21 17 16 20 22 20 20 20 19 19 19 19 18 17 16 13 14 11 8 5 5 4 5 4 6 6 5 7 3
28 28 27 28 25 25 21 19 13 16 10 12 9 9 4 15 13 18 15 21 22 21 21 21 22 18 17 18 17 15 14 14 12 9 5 5 4 4 5 7 9 6 4 6
29 22 28 28 25 24 22 19 14 11 15 13 13 12 14 19 23 23 20 18 20 21 21 21 20 19 17 17 18 16 16 13 12 11 8 7 7 5 4 8 6 6 6 3
26 31 27 29 28 23 24 18 10 12 12 13 15 13 7 11 16 12 20 20 18 21 21 19 21 20 18 18 19 17 18 15 14 13 10 8 8 5 5 9 6 7 8 7
22 24 30 23 32 26 25 22 14 13 13 15 15 16 9 19 9 7 17 11 17 18 21 22 23 21 20 18 19 20 20 17 16 14 12 9 7 4 4 4 4 4 4 6
22 30 21 30 27 28 25 20 22 23 20 12 13 18 17 17 13 12 18 18 18 28 20 24 25 23 23 20 19 21 21 19 17 15 13 11 9 8 7 7 4 5 3 9
26 21 28 26 29 28 30 15 21 16 21 14 18 5 8 10 14 14 11 9 4 6 2 8 22 24 22 22 19 19 21 21 19 17 14 12 13 11 8 6 7 7 4 2
26 24 22 27 27 28 22 22 22 16 17 15 15 11 22 7 14 13 13 14 10 9 1 7 19 22 22 21 20 19 18 21 19 17 15 14 13 13 11 8 7 8 5 5
13 9 17 22 19 29 29 23 24 12 20 14 16 15 13 16 18 12 13 11 13 11 12 6 7 20 21 20 20 19 19 19 19 17 14 15 14 14 14 12 9 8 8 5
7 14 13 20 22 26 31 23 23 21 19 18 15 16 14 8 12 8 17 17 13 9 9 7 4 5 17 17 17 18 18 17 18 16 16 15 15 15 15 15 12 10 9 8
2 14 18 18 18 20 26 29 26 24 17 18 19 20 5 19 14 20 11 12 12 8 9 12 4 1 5 13 13 13 15 17 17 17 17 16 16 16 15 14 15 12 11 11
8 15 17 28 27 16 23 23 23 27 24 21 18 19 10 15 9 11 14 11 11 12 13 13 11 9 3 6 11 12 13 17 17 17 18 18 15 15 15 15 14 15 12 12
11 12 16 20 22 15 21 24 25 30 21 22 24 18 23 24 20 18 10 10 11 14 15 14 15 15 12 5 6 11 14 13 14 16 18 17 17 15 15 14 15 13 15 14
11 11 10 17 18 12 19 17 23 20 19 16 18 14 18 18 17 20 18 17 14 13 14 13 14 15 13 11 7 8 11 12 14 14 16 17 17 17 16 16 14 16 15 15
6 8 9 12 13 15 11 13 8 13 18 16 16 18 14 11 14 19 17 14 14 13 13 11 11 13 16 15 14 9 12 12 15 15 15 16 17 18 18 17 17 15 15 16
9 8 8 9 12 9 16 4 9 10 10 13 12 13 13 11 15 17 16 16 13 14 14 15 15 14 14 15 17 16 11 14 15 18 16 15 16 17 16 17 17 16 15 15
11 8 7 11 14 12 8 14 22 9 6 9 9 12 16 15 8 10 17 16 15 15 13 14 17 17 16 14 15 16 12 14 15 15 15 14 14 17 18 18 18 16 14 15
9 8 11 12 11 9 7 10 11 9 3 7 10 13 14 11 8 9 12 13 15 12 14 15 15 14 14 15 15 20 12 11 14 13 14 16 15 16 16 16 15 15 15 15
10 8 8 11 16 4 16 3 3 5 6 6 11 10 11 11 11 12 11 11 11 11 15 16 15 15 14 14 16 17 9 10 9 13 13 14 15 13 13 16 15 15 15 16
4 9 6 7 7 13 18 17 11 8 9 9 8 10 9 8 11 11 11 11 11 13 13 13 14 15 14 13 13 16 15 16 18 9 12 13 12 14 14 13 15 13 15 14
8 11 2 4 6 15 13 13 11 8 6 6 7 8 7 12 9 10 9 9 10 11 10 12 14 14 14 13 14 14 15 15 15 12 8 8 10 11 12 12 11 13 13 13
7 6 10 5 10 2 9 10 8 6 6 3 6 7 9 8 7 8 7 8 7 8 7 9 11 11 12 13 13 14 14 13 12 13 8 8 8 9 10 11 11 12 13 13
11 16 11 1 6 6 2 5 9 8 9 11 5 6 8 7 7 6 5 5 6 6 8 7 9 12 12 12 12 13 14 13 11 11 8 5 4 6 7 9 10 14 14 14
Wind_Direction
224 235 235 240 233 260 281 165 182 174 192 128 232 272 282 274 193 170 174 177 178 178 177 169 173 168 157 155 157 180 158 144 142 186 189 172 225 168 107 86 89 87 86 14
229 226 238 243 251 246 252 253 155 178 236 141 168 219 209 227 237 171 171 178 184 176 176 170 174 168 165 160 164 165 161 154 177 201 217 177 195 191 104 105 119 111 89 10
228 230 225 244 248 254 255 253 141 178 230 219 173 191 221 220 233 165 173 171 185 182 177 172 180 174 171 166 169 170 171 164 204 206 228 60 95 95 107 122 128 145 157 153
238 231 239 220 244 248 250 252 247 192 184 216 214 218 190 197 187 194 174 168 181 184 180 175 179 181 177 169 172 173 174 167 203 233 195 190 180 151 145 167 146 146 181 182
231 236 230 241 223 244 251 257 226 253 263 276 180 257 187 189 178 196 206 172 178 182 183 179 182 184 187 171 173 177 174 171 192 210 216 185 254 175 178 127 143 146 153 226
241 230 238 238 241 229 251 252 253 282 282 247 248 256 168 185 194 185 183 188 176 175 180 179 179 178 190 176 170 176 177 179 191 201 199 203 212 262 172 142 146 158 173 206
233 237 238 237 240 230 230 242 223 236 245 243 231 234 170 100 291 206 170 185 177 172 178 179 177 179 185 186 171 176 176 184 191 193 194 213 213 221 276 150 174 191 183 176
227 226 228 231 233 235 223 221 232 222 241 238 224 245 211 164 160 134 158 174 174 187 180 180 180 178 180 191 178 177 173 183 186 186 196 199 210 228 217 189 196 230 183 150
224 234 224 231 236 231 238 218 230 244 231 255 251 213 240 126 175 183 159 158 163 222 193 181 181 177 176 185 186 181 173 181 184 197 188 189 212 214 208 181 226 279 255 138
243 246 231 221 230 239 232 234 223 234 250 245 257 224 276 315 193 197 172 173 111 118 26 200 180 173 176 178 187 184 175 182 185 190 190 189 196 210 229 219 201 233 226 150
223 244 244 225 211 225 222 225 236 245 237 235 248 249 199 100 323 208 200 129 94 50 92 298 171 170 172 174 184 188 184 179 185 191 190 191 193 201 214 231 217 209 250 171
222 251 239 250 234 214 231 223 228 228 254 235 256 267 145 168 200 156 139 114 94 65 12 58 319 160 168 176 182 187 192 178 186 188 193 192 193 197 205 213 223 190 211 204
289 235 249 251 257 212 215 216 227 229 231 250 249 248 133 150 302 36 135 112 93 65 30 32 12 160 167 174 180 187 189 187 182 185 193 194 195 197 202 206 216 204 200 222
332 259 234 242 251 197 201 215 219 228 230 224 247 248 183 148 199 169 134 88 96 74 36 28 90 149 156 171 176 185 186 188 179 187 191 199 199 198 202 204 205 214 200 207
236 251 254 242 258 281 202 211 231 233 240 236 233 236 231 155 128 49 88 77 62 63 40 24 18 18 185 174 183 179 191 190 187 185 195 198 198 202 203 204 205 206 212 209
237 241 259 267 254 253 286 212 208 227 225 234 244 246 37 23 114 148 111 100 67 54 43 14 4 355 8 208 197 197 191 191 193 191 196 197 200 199 205 206 206 206 207 213
249 251 271 250 245 207 227 257 200 225 234 248 233 55 47 41 33 50 53 59 43 27 26 8 355 335 342 343 272 214 207 197 197 200 197 198 198 201 205 207 206 207 207 205
250 288 276 253 244 229 203 232 263 95 48 27 50 49 42 33 58 53 42 41 35 17 10 356 337 335 324 330 325 294 215 202 209 205 206 199 201 205 207 209 209 214 210 211
272 250 252 259 244 244 210 106 35 228 66 27 42 39 27 352 108 52 20 14 36 15 2 341 332 325 318 318 311 306 250 211 207 216 209 208 203 210 211 214 215 214 219 212
235 250 284 261 260 218 29 348 358 37 95 32 44 37 15 21 80 22 1 6 14 15 6 342 331 321 317 303 315 296 283 219 221 211 216 208 213 209 213 214 214 216 220 225
226 232 232 242 255 104 18 23 316 272 98 32 45 46 34 32 26 13 0 8 7 1 350 346 330 318 312 326 331 321 265 270 216 224 207 215 211 219 214 218 218 218 219 223
195 194 230 246 263 214 345 11 101 96 106 62 59 38 33 19 11 17 10 5 1 354 348 349 336 329 333 343 334 323 303 277 238 204 222 208 215 213 218 215 220 220 219 222
63 29 27 24 75 97 74 96 84 70 48 44 48 53 25 3 8 4 3 4 358 354 350 347 340 333 338 344 337 331 339 343 338 207 206 223 211 215 217 221 216 219 219 222
62 32 34 14 336 94 95 109 106 80 71 48 55 48 23 342 12 355 9 9 359 348 352 345 345 342 344 345 343 334 330 342 337 317 230 216 226 216 218 218 226 219 220 221
353 325 16 53 36 308 37 60 22 34 10 20 27 17 2 345 6 1 3 21 14 344 345 351 347 340 341 339 341 336 337 342 344 328 286 236 229 221 223 221 224 229 225 224
6 2 10 120 311 346 106 333 326 345 338 323 343 357 341 355 13 358 353 10 20 11 350 356 352 342 340 343 340 338 337 350 344 318 329 321 262 239 231 231 230 241 248 227